Regional Weather Roundup
Issued by NWS

Home | Current Version | Previous Version | Text Only | Print | Product List | Glossary Off
Versions: 1 2 3 4 5 6 7 8 9 10 11 12 13 14 15 16 17 18 19 20 21 22 23 24 25 26 27 28 29 30 31 32 33 34 35 36 37 38 39 40 41 42 43 44 45 46 47 48 49 50

000
ASUS43 KLSX 161707
RWRMO

WEATHER SUMMARY FOR MISSOURI
NATIONAL WEATHER SERVICE SPRINGFIELD MO
1100 AM CST SAT DEC 16 2017

NOTE: "FAIR" INDICATES FEW OR NO CLOUDS BELOW 12,000 FEET WITH NO
       SIGNIFICANT WEATHER AND/OR OBSTRUCTIONS TO VISIBILITY.
       CURRENT SKY AND/OR WEATHER CONDITIONS ARE NOT AVAILABLE FOR
       CHILLICOTHE AND FARMINGTON.

MOZ001>031-035>038-043-044-053-054-161800-
...NORTHERN AND WESTERN MISSOURI...

CITY           SKY/WX    TMP DP  RH WIND       PRES   REMARKS
KANSAS CTY INT MOSUNNY   48  26  42 SW12G22   29.90R
KANSAS C DTWN  SUNNY     50  26  39 SW10      29.90F
LEE`S SUMMIT   SUNNY     49  27  42 SW17G25   29.92S
ST JOSEPH      SUNNY     47  28  47 SW16      29.88S
CHILLICOTHE      N/A     48  27  44 SW10      29.91R
KIRKSVILLE     SUNNY     48  30  49 SW10G20   29.90R

$$
MOZ066>068-077>081-088>096-101>105-161800-
...SOUTHWEST MISSOURI...

CITY           SKY/WX    TMP DP  RH WIND       PRES   REMARKS
SPRINGFIELD    SUNNY     55  26  32 SW21      30.03S
JOPLIN         SUNNY     53  28  38 SW20G33   30.03S
BRANSON        MOSUNNY   54  25  32 SW10G18   30.09S

$$
MOZ032>034-039>042-045>050-055>058-069>072-161800-
...CENTRAL MISSOURI...

CITY           SKY/WX    TMP DP  RH WIND       PRES   REMARKS
COLUMBIA       SUNNY     53  27  36 SW16      29.96F
JEFFERSON CITY SUNNY     52  26  36 S8        29.98F
ROLLA          SUNNY     52  27  38 SW17      30.01S
SEDALIA        SUNNY     52  28  39 SW17G25   29.95F
WHITEMAN AFB   SUNNY     51  26  38 SW22      29.89F
WARRENSBURG    SUNNY     50  27  40 S13       29.94S
OSAGE BEACH    SUNNY     55  27  34 SW13G21   30.00F

$$
MOZ051-052-059>065-161800-
...EAST CENTRAL MISSOURI...

CITY           SKY/WX    TMP DP  RH WIND       PRES   REMARKS
ST LOUIS INTL  MOSUNNY   51  27  39 SW16      30.00F
SPIRIT OF STL  SUNNY     53  27  36 SW13G21   29.99F
ST CHARLES     SUNNY     50  26  39 SW15      29.99F

$$
MOZ072>076-082>087-097>100-106>115-161800-
...SOUTH CENTRAL AND SOUTHEAST MISSOURI...

CITY           SKY/WX    TMP DP  RH WIND       PRES   REMARKS
CAPE GIRARDEAU SUNNY     45  32  60 S9        30.14F
FARMINGTON     SUNNY     49  28  44 SE8       30.06F
POPLAR BLUFF   SUNNY     44  32  62 S14       30.16F
WEST PLAINS    SUNNY     50  26  39 SW13G20   30.10S

$$


USA.gov is the U.S. government's official web portal to all federal, state and local government web resources and services.